Location: Cieszkowy
(50.3290°N, 20.5336°E)
Time: 00:32:42
(UTC+00:00)

Cosmos 2219 - Pass Details

Date: 15 June 2024
Orbit: 834 x 858 km, 71.1° (Epoch: 18 July)

Event Time Altitude Azimuth Distance (km) Brightness Sun altitude
Exits shadow 00:27:41 15° 227° (SW) 2,117 4.7 -12.5°
Maximum altitude 00:32:18 58° 304° (NW) 973 3.6 -12.2°
Drops below altitude 10° 00:37:51 10° 24° (NNE) 2,455 7.2 -11.8°
Sets 00:40:21 0° 28° (NNE) 3,393 8.6 -11.6°
